Tracking 23611 objects as of 18-Sep-2021
HD Live streaming from Space Station
objects crossing your sky now
Track INSPIRATION-4

STARLINK-1876

Track STARLINK-1876 now!
10-day predictions
STARLINK-1876 is classified as:


NORAD ID: 47161
Int'l Code: 2020-088AR
Perigee: 553.2 km
Apogee: 555.6 km
Inclination: 53.1 °
Period: 95.6 minutes
Semi major axis: 6925 km
RCS: Unknown
Launch date: November 25, 2020
Source: United States (US)
Launch site: AIR FORCE EASTERN TEST RANGE (AFETR)
aabbcc
Your satellite tracking list
Your tracking list is empty




NASA's NSSDC Master Catalog

Two Line Element Set (TLE):
1 47161U 20088AR  21260.58385603  .00001726  00000-0  13477-3 0  9997
2 47161  53.0547  67.4021 0001753  98.7785 261.3403 15.06392283 45686
Source of the keplerian elements: AFSPC